Torna al catalogo

STARLINK-6236

AttivoComunicazioniVLEO
NORAD 56422·PAYLOAD·🇺🇸 United States

Lanciato May 4, 2023 da Cape Canaveral Space Force Station

Loading…

Prossimi Passaggi (prossime 24 ore)

TLE

AggiornatoSource: CelesTrak SupGP

Epoca: Sep 15, 2026, 02:23 UTC

1 56422C 23061BA  26258.09979167 -.00006758  00000+0 -24482-3 0  2580
2 56422  43.0016 189.9509 0001571 264.5749 199.4970 15.27575368    16

Traccia STARLINK-6236 in tempo reale con AllMySat

Download on the App Store